Location: Camp Creek
(33.9000°N, 111.8167°W)
Time: 04:58:41
(UTC-07:00)

DELTA 2 R/B (1) - Visible Passes

Search period start: 26 August 2016 00:00
Search period end: 05 September 2016 00:00
Orbit: 790 x 803 km, 39.6° (Epoch: 25 August)

Date Brightness Start Highest point End Pass type
(mag) Time Alt. Az. Time Alt. Az. Time Alt. Az.
26 Aug 4.1 20:02:17 10° WNW 20:07:43 51° N 20:11:47 17° E visible
26 Aug 4.5 21:48:49 10° WNW 21:52:32 43° WNW 21:52:32 43° WNW visible
27 Aug 4.2 19:31:27 10° WNW 19:36:52 50° N 19:42:16 10° E visible
27 Aug 3.6 21:18:00 10° WNW 21:23:11 76° W 21:23:11 76° W visible
28 Aug 3.5 20:47:12 10° WNW 20:52:47 87° SSW 20:53:52 60° ESE visible
28 Aug 6.3 22:34:22 10° W 22:34:37 11° W 22:34:37 11° W visible
29 Aug 3.5 20:16:23 10° WNW 20:21:59 88° NNE 20:24:35 33° ESE visible
29 Aug 5.7 22:03:26 10° W 22:05:21 19° W 22:05:21 19° W visible
30 Aug 3.6 19:45:35 10° WNW 19:51:11 83° NNE 19:55:21 18° ESE visible
30 Aug 5.1 21:32:31 10° W 21:36:07 27° WSW 21:36:07 27° WSW visible
31 Aug 3.7 19:14:46 10° WNW 19:20:22 79° NNE 19:25:56 10° ESE visible
31 Aug 4.6 21:01:37 10° W 21:06:34 33° SW 21:06:57 32° SSW visible
01 Sep 4.6 20:30:44 10° W 20:35:47 36° SW 20:37:51 27° S visible
02 Sep 4.5 19:59:52 10° WNW 20:05:01 39° SW 20:08:49 17° SSE visible
03 Sep 4.5 19:29:00 10° WNW 19:34:15 43° SSW 19:39:29 10° SE visible
